CZ-6A DEB, 60689

Orbit data source: Space-Track

CZ-6A DEB, 60689 is space debris in LEO originally from a launch on Tue, 06 Aug 2024 UTC launched from the Taiyaun Space Center, China (TSC). Debris objects in space refer to the collection of defunct objects orbiting the Earth. Examples of debris include non-operational satellites, rocket bodies, and fragments generated from explosions, collisions, or faulty payload assembly.

Loading next visibility...
Identifier
60689, 2024-140CS
Orbit
LEO
Country
Flag of CNCN / PRC
Related business
Manufacturer
SAST
Mission
Spacecraft
Bus & Motor
Unknown
Mass
Unknown
Launch date (UTC)
2024-08-06 (2 years ago)
Launch vehicle
Unknown
Launch site
Taiyaun Space Center, China (TSC)
Object type
Payload
Rocket body
Debris
Shape & HBR
Unknown shape, 0.4 m
Radar Cross Section
Medium (>0.1 m² and <1 m²)

Expand to show TLE details & history
Last TLE update: 15 hours ago

TLE from 15 hours ago
0 CZ-6A DEB
1 60689U 24140CS  26171.29160965  .00000621  00000-0  25922-3 0  9997
2 60689  88.9998 273.6499 0030013 183.5167 176.5819 14.24786542 96768
Epoch: 2026-06-20T06:59Z
TLE epoch observation values (Epoch: 2026-06-20T06:59:55.073Z)
Latitude
-0.00011°
Longitude
-99.83791°
Altitude
833.808 km
Speed
7.425 km/s
True Right ascension
18h 14m 35s
True Declination
0° 00' 00"
Sunlit
Object was in full shadow at epoch
Visualization orbit readout
Latitude
Unknown
Longitude
Unknown
Altitude
Unknown
Speed
Unknown
Apparent Right ascension
Unknown
Apparent Declination
Unknown
Sunlit
N/A
Visualization observer readout
Local Sidereal Time
08:42:11
Azimuth
Unknown
Elevation
Unknown
Doppler factor
Unknown
Orbital elements
Apogee altitude
827.717 km
Perigee altitude
784.593 km
Semi-major axis
7,184.292 km
Eccentricity
0.003
Inclination
88.9998°
RAAN
273.6499°
Arg. of periapsis
183.5167°
True anomaly
176.60233°
Mean anomaly
176.5819°
Eccentric anomaly
176.59212°
Mean motion
3.56424 °/min
Orbital period
101 mins
BSTAR
0.00025922
Loading maneuver chart data...
Computing Atmospheric mass density...
Loading historical data...
Loading historical data...
Loading historical data...
Loading historical data...
Loading historical data...
Loading historical data...
Loading historical data...

Documentation

Showing up to 5 results
|